Buckland, AK

3:52 AM AKDT on September 03, 2015 (GMT -0800)
Buckland | | Change Station
CLOSE
Current Station
Airport
Location: Buckland,
Elevation: 30 ft
Nearby Weather Stations

Elev 30 ft 65.98 °N, 161.15 °W | Updated 16 minutes ago

Clear
Clear
46 °F
Feels Like 44 °F
N
5
Wind Variable Wind from South

Today
High -- | Low -- °F
--% Chance of Precip.
Yesterday
High -- | Low -- °F
Precip. -- in
7:26 AM 9:59 PM
Waning Gibbous, 71% visible
Pressure 29.91 in
Visibility 10.0 miles
Clouds Clear
Windchill 44 °F
Dew Point 34 °F
Humidity 62%
Rainfall 0.00 in
Snow Depth Not available.
UV 0 out of 12
Pollen Not available.
Air Quality Not available.
Flu Activity Not available.
METAR PABL 031136Z AUTO 17004KT 10SM CLR 08/01 A2991 RMK AO1
Pressure 29.91 in
Visibility 10.0 miles
Clouds Clear
Windchill 44 °F
Dew Point 34 °F
Humidity 62%
Rainfall 0.00 in
Snow Depth Not available.
UV 0 out of 12
Pollen Not available.
Air Quality Not available.
Flu Activity Not available.
METAR PABL 031136Z AUTO 17004KT 10SM CLR 08/01 A2991 RMK AO1

10-Day Weather Forecast

×

Almanac

Astronomy

Sep. 03, 2015 Rise Set
Actual Time
Civil Twilight
Nautical Twilight
Astronomical Twilight
Moon
Length of Visible Light
Length of Day
Tomorrow will be .
, % of the Moon is Illuminated

Today's Extremes

State Highs State Lows

Community

WunderPhotos

Upload Photos

1,851,941 photos uploaded!

WunderBlogs® & News

Nearby

Air Quality

  Air Quality AQ Index Pollutant
Not available.

Snow Depth

Station Depth Elevation

Earthquake Activity

City Distance Mag. Time & Date
Minimum magnitude displayed is 2.5.

Coastal Water Temperatures

Place Temperature

Stations

Nearby Weather Stations

Station Location Temp. Windchill Dew Point Humidity Wind Precip. Elev Updated Type